Location: Miles
(41.4492°N, 81.6087°W)
Time: 18:30:44
(UTC+00:00)

Tiros 1 despin weight - Pass Details

Date: 17 September 2024
Orbit: 573 x 615 km, 48.2° (Epoch: 04 October)

Event Time Altitude Azimuth Distance (km) Brightness Sun altitude
Rises 10:30:03 0° 284° (WNW) 2,882 - -8.1°
Exits shadow 10:31:42 - 290° (WNW) 2,275 ? -7.8°
Reaches altitude 10° 10:32:32 10° 294° (WNW) 1,980 ? -7.7°
Maximum altitude 10:36:43 34° 0° (N) 1,014 ? -6.9°
Drops below altitude 10° 10:40:54 10° 66° (ENE) 1,983 ? -6.1°
Sets 10:43:22 0° 76° (ENE) 2,886 ? -5.7°
